Location: Newark
(41.9000°N, 12.4833°E)
Time: 03:10:51
(UTC+00:00)

NOAA 18 - Pass Details

Date: 28 May 2019
Orbit: 840 x 861 km, 99.1° (Epoch: 19 June)

Event Time Altitude Azimuth Distance (km) Brightness Sun altitude
Exits shadow 19:29:20 - 175° (S) 3,461 8.0 -9.0°
Rises 19:29:27 0° 175° (S) 3,419 7.9 -9.1°
Reaches altitude 10° 19:31:51 10° 179° (S) 2,488 7.3 -9.4°
Maximum altitude 19:37:17 59° 258° (WSW) 995 5.8 -10.2°
Drops below altitude 10° 19:42:47 10° 338° (NNW) 2,508 8.8 -10.9°
Sets 19:45:13 0° 342° (NNW) 3,448 9.5 -11.3°
